User: anonymous   Login
Location: *
(38.3914°N, 75.0697°W)
Time: 09:04:05
(UTC+00:00)
Language:

Okean O Rocket - Orbit

View from above orbital plane
View from above orbital plane
View from above satellite
View from above satellite

Ground track
Ground track

The orbit data is extracted from the following two-line orbital elements,

1 25861U 99039B   20158.09452604  .00000014  00000-0  94003-5 0  9994
2 25861  98.2072 160.0278 0015366 189.5350 210.6266 14.78579103126083
Epoch (UTC): 06 June 2020 02:16:07
Eccentricity: 0.0015366
inclination: 98.2072°
perigee height: 623 km
apogee height: 644 km
right ascension of ascending node: 160.0278°
argument of perigee: 189.5350°
revolutions per day: 14.78579103
mean anomaly at epoch: 210.6266°
orbit number at epoch: 12608

The dashed part of the orbit path shows where the satellite is in the earth's shadow,  

DLR